N7DTY Weather Reports


Display with metric or nautical units.
time (UTC)temp
F
wind
direction
speed
MPH
gust
MPH
rain 1hr
in
rain 24hr
in
rain mn
in
humidity
%
barometer
mb
20260508114554 51 248 0.0 1.0 0.00 0.00 0.00 89 1015.9
20260508113153 51 248 0.0 2.0 0.00 0.00 0.00 89 1016.0
20260508111550 51 188 0.0 4.0 0.00 0.00 0.00 90 1016.0
20260508110049 51 190 1.0 3.0 0.00 0.00 0.00 90 1016.0
20260508104548 51 190 0.0 1.0 0.00 0.00 0.00 89 1015.9
20260508103050 51 190 0.0 2.0 0.00 0.00 0.00 89 1015.9
20260508101549 51 199 0.0 2.0 0.00 0.00 0.00 88 1015.8
20260508100047 51 201 0.0 2.0 0.00 0.00 0.00 87 1015.8
20260508094606 51 201 0.0 0.0 0.00 0.00 0.00 87 1015.7
20260508093046 51 201 0.0 0.0 0.00 0.00 0.00 86 1015.7
20260508091546 51 201 0.0 2.0 0.00 0.00 0.00 86 1015.7
20260508090049 51 180 0.0 1.0 0.00 0.00 0.00 86 1015.7
20260508084543 51 180 0.0 0.0 0.00 0.00 0.00 86 1015.8
20260508083042 51 180 0.0 0.0 0.00 0.00 0.00 85 1015.8
20260508081559 52 180 0.0 0.0 0.00 0.00 0.00 84 1016.0
20260508080036 52 180 0.0 0.0 0.00 0.00 0.00 82 1016.0
20260508074535 52 180 0.0 0.0 0.00 0.00 0.00 82 1016.1
20260508073036 53 180 0.0 0.0 0.00 0.00 0.00 82 1016.2
20260508071541 53 180 0.0 3.0 0.00 0.00 0.00 81 1016.2
20260508070028 54 117 2.0 9.0 0.00 0.00 0.00 80 1016.3
20260508064530 54 163 2.0 6.0 0.00 0.00 0.00 81 1016.3
20260508063043 54 180 2.0 4.0 0.00 0.00 0.00 81 1016.3
20260508061526 54 198 0.0 5.0 0.00 0.00 0.00 83 1016.2
20260508060029 54 209 1.0 4.0 0.00 0.00 0.00 81 1016.2
20260508054525 53 175 0.0 2.0 0.00 0.00 0.00 82 1016.2
20260508053025 54 173 0.0 5.0 0.00 0.00 0.00 81 1016.2
20260508051523 54 178 0.0 4.0 0.00 0.00 0.00 80 1016.2
20260508050022 55 130 2.0 8.0 0.00 0.00 0.00 80 1016.3
20260508044526 55 204 2.0 5.0 0.00 0.00 0.00 79 1016.5
20260508043022 55 211 2.0 7.0 0.00 0.00 0.00 78 1016.6
20260508041519 55 166 3.0 5.0 0.00 0.00 0.00 77 1016.6
20260508040019 55 184 1.0 5.0 0.00 0.00 0.00 78 1016.7
20260508034518 55 144 0.0 5.0 0.00 0.00 0.00 78 1016.6
20260508033018 56 184 1.0 5.0 0.00 0.00 0.00 77 1016.5
20260508031516 57 170 1.0 5.0 0.00 0.00 0.00 76 1016.5
20260508030015 57 170 0.0 4.0 0.00 0.00 0.00 77 1016.7
20260508024530 57 195 1.0 4.0 0.00 0.00 0.00 76 1016.7
20260508023022 58 163 1.0 5.0 0.00 0.00 0.00 77 1016.6
20260508021513 58 171 1.0 4.0 0.00 0.00 0.00 76 1016.8
20260508020011 58 193 1.0 5.0 0.00 0.00 0.00 76 1016.7
20260508014510 59 193 2.0 7.0 0.00 0.00 0.00 76 1016.9
20260508013008 59 142 2.0 5.0 0.00 0.00 0.00 74 1017.1
20260508011506 59 144 3.0 9.0 0.00 0.00 0.00 75 1017.2
20260508010005 59 351 2.0 5.0 0.00 0.00 0.00 74 1017.3
20260508004504 60 144 2.0 9.0 0.00 0.00 0.00 74 1017.5
20260508003005 59 181 2.0 6.0 0.00 0.00 0.00 77 1017.5
20260508001503 59 159 1.0 6.0 0.00 0.00 0.00 76 1017.4
20260508000002 60 162 2.0 6.0 0.00 0.00 0.00 73 1017.4
20260507234502 60 202 3.0 7.0 0.00 0.00 0.00 73 1017.5
20260507233100 60 205 3.0 7.0 0.00 0.00 0.00 72 1017.5
20260507231601 61 191 2.0 7.0 0.00 0.00 0.00 72 1017.6
20260507230104 60 184 2.0 7.0 0.00 0.00 0.00 73 1017.7
20260507224600 60 207 4.0 9.0 0.00 0.00 0.00 73 1017.9
20260507223056 60 203 4.0 8.0 0.00 0.00 0.00 73 1017.9
20260507221554 60 156 2.0 8.0 0.00 0.00 0.00 74 1018.1
20260507220152 61 175 3.0 8.0 0.00 0.00 0.00 72 1018.3
20260507214602 61 178 3.0 9.0 0.00 0.00 0.00 72 1018.6
20260507213046 62 183 3.0 8.0 0.00 0.00 0.00 72 1018.8
20260507211549 61 171 3.0 8.0 0.00 0.00 0.00 73 1018.9
20260507210045 61 209 2.0 5.0 0.00 0.00 0.00 74 1019.1
20260507204543 60 185 2.0 6.0 0.00 0.00 0.00 76 1019.3
20260507203056 59 151 4.0 8.0 0.00 0.00 0.00 75 1019.6
20260507201551 59 144 3.0 9.0 0.00 0.00 0.00 77 1019.8
20260507200053 59 159 3.0 9.0 0.00 0.00 0.00 76 1019.8
20260507194539 60 155 1.0 7.0 0.00 0.00 0.00 78 1019.8
20260507193044 60 198 2.0 7.0 0.00 0.00 0.00 76 1019.9
20260507191534 59 185 2.0 5.0 0.00 0.00 0.00 76 1020.0
20260507190032 57 193 1.0 5.0 0.00 0.00 0.00 79 1020.1
20260507184530 57 184 1.0 5.0 0.00 0.00 0.00 77 1020.3
20260507183030 56 171 2.0 5.0 0.00 0.00 0.00 78 1020.3
20260507181532 56 175 2.0 7.0 0.00 0.00 0.00 78 1020.4
20260507180036 55 169 2.0 6.0 0.00 0.00 0.00 77 1020.4
20260507174528 56 153 1.0 5.0 0.00 0.00 0.00 78 1020.5
20260507173032 56 153 1.0 5.0 0.00 0.00 0.00 75 1020.4
20260507171528 57 170 2.0 4.0 0.00 0.00 0.00 73 1020.4
20260507170028 57 194 0.0 4.0 0.00 0.00 0.00 75 1020.4
20260507164526 57 163 0.0 4.0 0.00 0.00 0.00 75 1020.3
20260507163022 56 186 1.0 5.0 0.00 0.00 0.00 77 1020.4
20260507161521 55 199 1.0 3.0 0.00 0.00 0.00 76 1020.4
20260507160020 56 196 1.0 5.0 0.00 0.00 0.00 75 1020.4
20260507154515 55 182 1.0 8.0 0.00 0.00 0.00 78 1020.6
20260507153012 54 165 2.0 6.0 0.00 0.00 0.00 78 1020.7
20260507151511 53 209 0.0 2.0 0.00 0.00 0.00 80 1020.6
20260507150019 53 171 1.0 6.0 0.00 0.00 0.00 83 1020.6
20260507144513 53 166 1.0 5.0 0.00 0.00 0.00 84 1020.7
20260507143001 53 150 2.0 5.0 0.00 0.00 0.00 84 1020.5
20260507141604 53 179 0.0 3.0 0.00 0.00 0.00 84 1020.5
20260507140101 53 161 0.0 3.0 0.00 0.00 0.00 84 1020.5
20260507134604 52 181 0.0 2.0 0.00 0.00 0.00 83 1020.5
20260507133123 52 181 0.0 2.0 0.00 0.00 0.00 83 1020.4
20260507131555 52 181 0.0 2.0 0.00 0.00 0.00 82 1020.3
20260507130105 52 181 0.0 0.0 0.00 0.00 0.00 81 1020.3
20260507124550 52 181 0.0 3.0 0.00 0.00 0.00 81 1020.3
20260507123053 52 178 0.0 1.0 0.00 0.00 0.00 81 1020.3
20260507121604 52 178 0.0 4.0 0.00 0.00 0.00 79 1020.5
20260507120057 52 173 1.0 5.0 0.00 0.00 0.00 80 1020.5